Location: Gleizolles
(44.4833°N, 6.7667°E)
Time: 16:13:56
(UTC+00:00)

Explorer 7 - Pass Details

Date: 22 June 2024
Orbit: 465 x 619 km, 50.3° (Epoch: 12 July)

Event Time Altitude Azimuth Distance (km) Brightness Sun altitude
Rises 11:52:53 0° 263° (W) 2,653 10.4 68.6°
Reaches altitude 10° 11:55:13 10° 269° (W) 1,738 9.6 68.5°
Maximum altitude 11:58:59 45° 343° (NNW) 687 7.8 68.4°
Drops below altitude 10° 12:02:37 10° 58° (ENE) 1,666 9.2 68.2°
Sets 12:04:49 0° 65° (ENE) 2,529 10.0 68.1°
